FW7352 Weather Reports


Display with metric or nautical units.
time (UTC)temp
F
wind
direction
speed
MPH
gust
MPH
rain 1hr
in
rain 24hr
in
rain mn
in
humidity
%
barometer
mb
20260510043050 46 235 4.0 8.0 0.00 0.00 0.00 87 1017.6
20260510041547 47 234 5.0 9.0 0.00 0.00 0.00 86 1017.5
20260510040059 47 231 6.0 11.0 0.00 0.00 0.00 86 1017.3
20260510034549 47 246 5.0 10.0 0.00 0.00 0.00 85 1017.4
20260510033102 48 238 5.0 9.0 0.00 0.00 0.00 84 1017.5
20260510031552 48 240 4.0 16.0 0.00 0.00 0.00 82 1017.3
20260510030055 48 240 4.0 10.0 0.00 0.00 0.00 83 1017.3
20260510024550 48 237 3.0 8.0 0.00 0.00 0.00 82 1017.4
20260510023048 49 265 4.0 10.0 0.00 0.00 0.00 81 1017.3
20260510021546 48 224 3.0 11.0 0.00 0.00 0.00 81 1017.3
20260510020049 48 249 3.0 7.0 0.00 0.00 0.00 81 1016.9
20260510014549 48 240 2.0 8.0 0.00 0.00 0.00 81 1016.5
20260510013046 48 219 2.0 4.0 0.00 0.00 0.00 78 1016.3
20260510011549 49 234 2.0 5.0 0.00 0.00 0.00 77 1016.1
20260510010047 49 219 2.0 6.0 0.00 0.00 0.00 75 1016.0
20260510004544 50 215 2.0 5.0 0.00 0.00 0.00 74 1015.8
20260510003048 50 194 2.0 7.0 0.00 0.00 0.00 72 1015.7
20260510001550 51 229 3.0 8.0 0.00 0.00 0.00 71 1015.4
20260510000104 52 242 2.0 10.0 0.00 0.00 0.00 69 1015.2
20260509234555 53 255 4.0 9.0 0.00 0.00 0.00 67 1015.1
20260509233050 54 250 4.0 9.0 0.00 0.00 0.00 65 1015.1
20260509231549 55 225 3.0 10.0 0.00 0.00 0.00 65 1015.2
20260509230049 55 192 4.0 13.0 0.00 0.00 0.00 65 1015.3
20260509224550 55 270 3.0 9.0 0.00 0.00 0.00 65 1015.4
20260509223059 55 252 3.0 14.0 0.00 0.00 0.00 63 1015.3
20260509221550 56 241 5.0 13.0 0.00 0.00 0.00 61 1015.2
20260509220045 57 244 5.0 12.0 0.00 0.00 0.00 57 1015.1
20260509214548 58 232 5.0 13.0 0.00 0.00 0.00 54 1015.1
20260509213053 58 244 3.0 12.0 0.00 0.00 0.00 51 1015.0
20260509211548 58 238 5.0 9.0 0.00 0.00 0.00 50 1014.7
20260509210057 59 229 4.0 14.0 0.00 0.00 0.00 47 1014.5
20260509204554 61 235 5.0 13.0 0.00 0.00 0.00 48 1014.2
20260509203055 59 284 5.0 11.0 0.00 0.00 0.00 49 1014.1
20260509201549 59 250 8.0 17.0 0.00 0.00 0.00 52 1014.2
20260509200106 61 223 5.0 14.0 0.00 0.00 0.00 55 1014.2
20260509194547 60 225 5.0 11.0 0.00 0.00 0.00 55 1014.3
20260509193048 62 229 6.0 14.0 0.00 0.00 0.00 55 1014.1
20260509191547 63 242 6.0 12.0 0.00 0.00 0.00 55 1014.3
20260509190047 59 230 7.0 13.0 0.00 0.00 0.00 59 1014.4
20260509184558 59 250 6.0 16.0 0.00 0.00 0.00 60 1014.5
20260509183052 60 257 4.0 15.0 0.00 0.00 0.00 61 1014.5
20260509181614 60 213 5.0 10.0 0.00 0.00 0.00 63 1014.5
20260509180049 59 223 5.0 9.0 0.00 0.00 0.00 66 1014.5
20260509174558 58 227 5.0 12.0 0.00 0.00 0.00 66 1014.7
20260509173059 57 222 5.0 8.0 0.00 0.00 0.00 64 1015.0
20260509171545 55 224 3.0 7.0 0.00 0.00 0.00 73 1015.0
20260509170049 56 0 4.0 10.0 0.00 0.00 0.00 67 1015.2
20260509164549 55 218 4.0 11.0 0.00 0.00 0.00 68 1015.2
20260509163052 54 228 3.0 8.0 0.00 0.00 0.00 69 1015.0
20260509161547 54 216 3.0 9.0 0.00 0.00 0.00 68 1014.9
20260509160056 54 252 4.0 10.0 0.00 0.00 0.00 69 1014.9
20260509154549 56 219 5.0 9.0 0.00 0.00 0.00 65 1014.7
20260509153053 57 236 4.0 11.0 0.00 0.00 0.00 64 1014.7
20260509151555 57 227 5.0 10.0 0.00 0.00 0.00 64 1014.7
20260509150050 56 254 4.0 9.0 0.00 0.00 0.00 64 1014.6
20260509144604 56 240 6.0 10.0 0.00 0.00 0.00 62 1014.4
20260509143105 57 233 5.0 10.0 0.00 0.00 0.00 61 1014.5
20260509141547 55 227 3.0 8.0 0.00 0.00 0.00 66 1014.2
20260509140054 53 212 3.0 9.0 0.00 0.00 0.00 68 1014.4
20260509134605 52 243 4.0 8.0 0.00 0.00 0.00 71 1014.7
20260509133050 51 224 5.0 10.0 0.00 0.00 0.00 73 1015.0
20260509131551 49 242 4.0 8.0 0.00 0.00 0.00 77 1015.1
20260509130058 48 265 4.0 8.0 0.00 0.00 0.00 80 1015.0
20260509124547 47 261 4.0 9.0 0.00 0.00 0.00 79 1015.2
20260509123111 47 243 3.0 6.0 0.00 0.00 0.00 80 1015.3
20260509121607 46 224 3.0 5.0 0.00 0.00 0.00 81 1014.9
20260509120112 45 220 2.0 4.0 0.00 0.00 0.00 83 1014.9
20260509114550 44 235 2.0 4.0 0.00 0.00 0.00 83 1015.0
20260509113050 44 234 3.0 5.0 0.00 0.00 0.00 84 1015.0
20260509111601 43 236 2.0 4.0 0.00 0.00 0.00 84 1015.2
20260509110049 43 236 2.0 4.0 0.00 0.00 0.00 84 1015.2
20260509104551 43 236 2.0 4.0 0.00 0.00 0.00 84 1015.1
20260509103101 43 232 2.0 5.0 0.00 0.00 0.00 84 1015.1
20260509101619 43 231 2.0 5.0 0.00 0.00 0.00 84 1014.9
20260509100057 43 234 3.0 5.0 0.00 0.00 0.00 84 1014.7
20260509094549 42 232 3.0 7.0 0.00 0.00 0.00 84 1014.8
20260509093047 43 239 3.0 6.0 0.00 0.00 0.00 83 1015.0
20260509091549 43 234 4.0 8.0 0.00 0.00 0.00 82 1015.1
20260509090050 43 237 4.0 7.0 0.00 0.00 0.00 82 1015.4
20260509084550 43 226 4.0 7.0 0.00 0.00 0.00 81 1015.4
20260509083045 43 221 3.0 7.0 0.00 0.00 0.00 80 1015.4
20260509081548 43 226 4.0 8.0 0.00 0.00 0.00 79 1015.6
20260509080051 44 242 4.0 8.0 0.00 0.00 0.00 78 1015.5
20260509074550 44 232 5.0 10.0 0.00 0.00 0.00 77 1015.5
20260509073105 44 227 4.0 8.0 0.00 0.00 0.00 76 1015.7
20260509071556 45 258 4.0 10.0 0.00 0.00 0.00 75 1015.7
20260509070055 44 229 4.0 9.0 0.00 0.00 0.00 74 1016.0
20260509064604 44 214 5.0 7.0 0.00 0.00 0.00 74 1016.1
20260509063049 43 225 3.0 7.0 0.00 0.00 0.00 74 1016.2
20260509061550 44 226 4.0 14.0 0.00 0.00 0.00 73 1016.3
20260509060049 44 221 4.0 8.0 0.00 0.00 0.00 73 1016.4
20260509054600 44 226 4.0 7.0 0.00 0.00 0.00 72 1016.7
20260509053050 44 227 3.0 8.0 0.00 0.00 0.00 72 1016.8
20260509051551 44 225 4.0 7.0 0.00 0.00 0.00 72 1016.9
20260509050048 44 233 4.0 7.0 0.00 0.00 0.00 71 1016.6
20260509044548 45 234 3.0 7.0 0.00 0.00 0.00 71 1016.8